星链-32323 (STARLINK-32323)

导读

STARLINK-32323是美国SpaceX星链星座的成员,于2024年10月26日发射升空。星链项目旨在构建全球卫星互联网星座,该卫星加入后,进一步拓展了星链的全球覆盖能力,可为偏远地区、海洋等地面网络难以覆盖的区域提供低延迟宽带互联网接入服务,推动全球互联基础设施建设。

基本信息
目录编号:
61677
目录名称:
STARLINK-32323
国际标识:
2024-193S
轨道中心:
EARTH
卫星名称:
星链-32323
卫星全名:
星链-32323 (STARLINK-32323)
卫星状态:
在轨 (已飞行599 天)
发射日期:
2024-10-26 UTC
国别 :
美国 (US)
星等 :
--
轨道信息
数据来源 国际轨道数据
星历时间: 2026-06-17T01:12:39+0800
1天前
查看轨道信息
半长轴: 6840.86km
偏心率: 0.0001159
轨道倾角: 53.161°
近地点辐角 88.785°
升交点赤经 349.232°
平近点角 271.328°
近地点: 461.93km
远地点: 463.516km
周期: 93.848分钟
每日圈数: 15.343934
详细信息
固有亮度:
5
最大亮度:
2.5
卫星平台:
Starlink V1.0
覆盖范围:
全球
运营商:
太空探索技术公司
运营商所在国:
美国
制造商(研发单位):
太空探索技术公司
制造商所在国:
美国
使用方式:
暂无
卫星简介
Starlink 计划是 SpaceX 推出的全球卫星互联网项目,通过发射低轨道卫星,为全球尤其是偏远地区提供高速、低延迟的互联网服务。自 2019 年起,Starlink 已部署数千颗卫星,旨在缩小全球数字鸿沟,推动互联网普及。该项目还为军事、航空等行业提供通信支持,带来广泛经济效益。
2D轨道图
3D轨道图
轨道高度分析图
轨道倾角分析图
轨道综合分析图
查看轨道综合分析图